[[{"header":{"parameterUnit":"m.s-1","parameterCategory":2,"la1":30.2991,"la2":30.254,"lo1":-89.0895,"lo2":-89.0444,"dy":0.0017,"dx":0.0017,"nx":28,"ny":28,"refTime":"2025-07-11T21:00:00:Z","depth":"0","parameterNumber":2,"parameterNumberName":"U-component_of_CURRENTS"},"data":[0,0,0,0,0,0,0,0,0,0,0,0,0,0,0,0,0,0,0,0,0,0,0,0,0,0,0,0,0,0,0,0,0,0,0,0,0,0,0,0,0,0,0,0,0,0,0,0,0,0,0,0,0,0,0,0,0,0,0.3279,0.328,0,0.3437,0.3439,0.3441,0.3367,0.3363,0.3358,0.3355,0.3301,0.3304,0.3306,0,0,0,0,0,0,0,0,0,0,0,0,0,0.3132,0.3134,0.3279,0.328,0.3282,0.3437,0.3439,0.3441,0.3367,0.3362,0.3357,0.3353,0.3301,0.3303,0.3306,0,0,0,0,0,0,0,0,0,0,0,0,0,0.3234,0.3134,0.3278,0.3263,0.3263,0.3436,0.3439,0.3442,0.3368,0.3362,0.3356,0.335,0.33,0.3303,0.3307,0.3453,0,0,0.3318,0.3319,0,0,0,0,0,0,0,0,0.3228,0.324,0.3263,0.3264,0.3265,0.3375,0.3368,0.3435,0.337,0.333,0.3354,0.3347,0.331,0.3313,0.3361,0.3451,0.3448,0.3318,0.332,0.3322,0.3323,0,0,0,0,0,0,0,0.3221,0.3234,0.3342,0.3266,0.3267,0.3324,0.333,0.3383,0.335,0.3333,0.3328,0.3345,0.3308,0.3358,0.3358,0.3447,0.3318,0.3321,0.3324,0.3325,0.3619,0.3625,0,0,0,0,0,0,0.3195,0.3227,0.3337,0.3347,0.323,0.3331,0.3337,0.3347,0.3354,0.335,0.3351,0.3341,0.3355,0.3354,0.3356,0.349,0.3322,0.3325,0.3327,0.3614,0.3621,0.3627,0,0,0,0,0,0,0.3191,0.3203,0.3331,0.329,0.3309,0.3338,0.3351,0.3353,0.3383,0.3369,0.336,0.3374,0.335,0.3351,0.3419,0.3487,0.3327,0.333,0.3607,0.3616,0.3624,0.3781,0,0,0,0,0,0,0.3186,0.3201,0.3213,0.3288,0.3311,0.3443,0.3357,0.3361,0.3404,0.3393,0.3388,0.3378,0.3345,0.3414,0.3423,0.3489,0.3333,0.36,0.3611,0.3621,0.3769,0.3794,0.3815,0,0,0,0,0,0.3181,0.3221,0.3213,0.3227,0.3321,0.3447,0.3467,0.3466,0.3411,0.3463,0.3456,0.3377,0.3485,0.3423,0.3431,0.35,0.3595,0.3608,0.362,0.3758,0.3789,0.3815,0,0,0,0,0,0,0.3172,0.322,0.3211,0.3264,0.3351,0.3433,0.3486,0.3486,0.3532,0.3504,0.3461,0.3457,0.3547,0.3523,0.3455,0.3622,0.3525,0.354,0.3628,0.3656,0.3679,0.3657,0.3336,0,0,0,0,0,0.3179,0.3208,0.3285,0.3333,0.3378,0.3437,0.3487,0.3496,0.3543,0.3555,0.3556,0.3568,0.3623,0.3629,0.3678,0.3775,0.3747,0.3826,0.3849,0.3869,0.3863,0.3947,0.3976,0.3668,0.3668,0.3668,0,0,0.3183,0.3221,0.3232,0.3333,0.3396,0.3507,0.3452,0.3545,0.3622,0.3547,0.3645,0.3661,0.3675,0.3783,0.3818,0.3754,0.394,0.3885,0.39,0.3883,0.3963,0.3992,0.4018,0.3677,0.3675,0.3674,0,0,0.3246,0.3255,0.3317,0.3403,0.3508,0.3562,0.3589,0.3687,0.3709,0.3825,0.3793,0.3852,0.3927,0.3958,0.3978,0.417,0.4076,0.418,0.4259,0.4343,0.4367,0.4389,0.4366,0.4384,0.4172,0.4173,0.4173,0,0.3257,0.3336,0.3366,0.3478,0.3543,0.3588,0.3694,0.3774,0.3875,0.3893,0.3863,0.4008,0.4017,0.414,0.4199,0.4218,0.4209,0.4141,0.4369,0.4389,0.4408,0.438,0.4398,0.4182,0.4181,0.418,0.4179,0,0.338,0.3456,0.3518,0.3647,0.3731,0.3839,0.3935,0.4003,0.402,0.407,0.4186,0.4243,0.4296,0.434,0.4322,0.4474,0.4404,0.4399,0.4282,0.4448,0.4409,0.4424,0.4195,0.4191,0.4189,0.4186,0,0,0.3368,0.3559,0.3579,0.3651,0.3817,0.3894,0.4025,0.414,0.4178,0.4297,0.4365,0.4507,0.4496,0.4524,0.4537,0.461,0.4737,0.4557,0.4557,0.4504,0.4849,0.4555,0.4542,0.4772,0.4777,0.478,0.4756,0,0.3458,0.3665,0.3725,0.3902,0.4018,0.407,0.4179,0.4271,0.4326,0.4412,0.4488,0.4581,0.4585,0.4607,0.4701,0.4738,0.479,0.4738,0.4721,0.4718,0.4414,0.4556,0.4298,0.4234,0.477,0.4772,0.4774,0,0.3561,0.3681,0.3869,0.4004,0.4047,0.4138,0.4233,0.4334,0.4451,0.4481,0.4581,0.464,0.4787,0.4763,0.4913,0.4877,0.4873,0.4889,0.4889,0.4564,0.4454,0.4166,0.424,0.415,0.4796,0.4795,0.4793,0,0.3561,0.3763,0.3894,0.3962,0.4142,0.417,0.4231,0.4337,0.4388,0.4519,0.4559,0.4735,0.4798,0.4906,0.4945,0.4943,0.5058,0.5054,0.478,0.4755,0.45,0.4444,0.4454,0.515,0.515,0.515,0.515,0,0.3655,0.3749,0.3889,0.3978,0.4064,0.416,0.4226,0.4293,0.4386,0.4445,0.4587,0.4666,0.4843,0.4928,0.4974,0.4897,0.5084,0.4795,0.475,0.4542,0.4493,0.4367,0.4385,0.5149,0.5149,0.515,0.515,0,0.368,0.3787,0.3926,0.4068,0.4088,0.4141,0.4206,0.4252,0.4331,0.4412,0.4464,0.4628,0.4697,0.4807,0.4926,0.4858,0.4701,0.4783,0.4459,0.4374,0.3955,0.3991,0.3746,0.3671,0.4462,0.4455,0.4449,0,0.373,0.3821,0.3959,0.4005,0.4064,0.4124,0.4161,0.4224,0.4262,0.4377,0.4422,0.4506,0.453,0.4547,0.4472,0.4424,0.442,0.4115,0.4063,0.3886,0.3901,0.3791,0.3745,0.3798,0.3787,0.3778,0.3771,0,0.3823,0.3858,0.3968,0.404,0.408,0.4107,0.4147,0.4153,0.4217,0.4245,0.4258,0.4274,0.4221,0.4027,0.3918,0.3887,0.3877,0.3917,0.3889,0.3489,0.3226,0.3145,0.3808,0.3692,0.37,0.3706,0.371,0.3713,0.386,0.3925,0.4032,0.4058,0.4094,0.4057,0.3995,0.4017,0.3987,0.3918,0.4038,0.3879,0.3696,0.3472,0.3422,0.3099,0.3246,0.2976,0.3064,0.2988,0.2819,0.3217,0.295,0.2953,0.2956,0.2959,0.2961,0,0.3907,0.3963,0.4027,0.4034,0.3975,0.3998,0.3957,0.3818,0.3678,0.3626,0.354,0.32,0.295,0.2804,0.2485,0.2319,0.2284,0.2273,0.2176,0.2208,0.2691,0.2564,0.2012,0.2012,0.2012,0.2012,0.2012,0.2013,0.3944,0.4001,0.3989,0.3877,0.3839,0.3638,0.3544,0.3372,0.325,0.2903,0.2634,0.2561,0.2439,0.2177,0.1917,0.187,0.1833,0.1603,0.178,0.2235,0.2311,0.2384,0.2269,0.1665,0.1664,0.1135,0.1132,0.1129]},{"header":{"parameterUnit":"m.s-1","parameterCategory":2,"la1":30.2991,"la2":30.254,"lo1":-89.0895,"lo2":-89.0444,"dy":0.0017,"dx":0.0017,"nx":28,"ny":28,"refTime":"2025-07-11T21:00:00:Z","depth":"0","parameterNumber":3,"parameterNumberName":"V-component_of_CURRENTS"},"data":[0,0,0,0,0,0,0,0,0,0,0,0,0,0,0,0,0,0,0,0,0,0,0,0,0,0,0,0,0,0,0,0,0,0,0,0,0,0,0,0,0,0,0,0,0,0,0,0,0,0,0,0,0,0,0,0,0,0,0.0153,0.0153,0,0.012,0.0119,0.0119,0.01,0.01,0.01,0.01,0.021,0.0213,0.0216,0,0,0,0,0,0,0,0,0,0,0,0,0,0.0166,0.0166,0.0154,0.0153,0.0152,0.012,0.0119,0.0119,0.01,0.01,0.01,0.01,0.0209,0.0212,0.0216,0,0,0,0,0,0,0,0,0,0,0,0,0,0.015,0.0166,0.0154,0.0138,0.0136,0.012,0.0119,0.0119,0.01,0.01,0.01,0.0099,0.0207,0.0212,0.0216,0.025,0,0,0.0231,0.0233,0,0,0,0,0,0,0,0,0.0151,0.015,0.0141,0.0139,0.0137,0.0113,0.0164,0.0169,0.01,0.0115,0.01,0.0099,0.019,0.0196,0.019,0.0255,0.026,0.0231,0.0234,0.0236,0.0237,0,0,0,0,0,0,0,0.0152,0.0151,0.0141,0.014,0.0138,0.012,0.0119,0.0164,0.0158,0.0114,0.0112,0.0107,0.019,0.0185,0.0193,0.0262,0.0231,0.0235,0.0238,0.024,0.041,0.0412,0,0,0,0,0,0,0.0156,0.0152,0.0142,0.014,0.0142,0.0121,0.0118,0.0122,0.0154,0.0158,0.0107,0.0106,0.0177,0.0187,0.0197,0.0295,0.0236,0.024,0.0243,0.0409,0.0411,0.0413,0,0,0,0,0,0,0.0157,0.0156,0.0144,0.0144,0.0141,0.0121,0.0125,0.0121,0.012,0.0147,0.0153,0.0109,0.0178,0.019,0.0234,0.0298,0.0242,0.0246,0.0407,0.0409,0.0412,0.0457,0,0,0,0,0,0,0.0158,0.0157,0.0162,0.0145,0.0141,0.0142,0.0125,0.0121,0.0116,0.0114,0.0152,0.016,0.0178,0.0227,0.0238,0.0303,0.025,0.0404,0.0408,0.0411,0.0454,0.0461,0.0468,0,0,0,0,0,0.0158,0.0167,0.0163,0.0161,0.0149,0.0142,0.0139,0.0124,0.0116,0.0121,0.0138,0.0159,0.0257,0.0231,0.0245,0.0312,0.0403,0.0407,0.0411,0.045,0.046,0.0468,0,0,0,0,0,0,0.0173,0.0165,0.016,0.0166,0.0158,0.0138,0.0138,0.0129,0.0142,0.0143,0.0169,0.018,0.0245,0.0266,0.0237,0.037,0.034,0.0347,0.0366,0.0375,0.0382,0.0435,0.0254,0,0,0,0,0,0.0179,0.0187,0.0173,0.0179,0.0175,0.0158,0.0153,0.0143,0.0148,0.0151,0.0179,0.0219,0.0272,0.0309,0.0345,0.0417,0.044,0.0473,0.048,0.0486,0.0538,0.0632,0.0654,0.0426,0.0426,0.0426,0,0,0.0185,0.0183,0.0186,0.0183,0.0174,0.0191,0.0155,0.0149,0.0184,0.0167,0.0225,0.0238,0.029,0.0362,0.0398,0.0392,0.0543,0.0491,0.0495,0.0546,0.0639,0.0662,0.0682,0.0428,0.0428,0.0427,0,0,0.0202,0.02,0.0212,0.0215,0.0205,0.0206,0.0209,0.0198,0.0213,0.0253,0.0261,0.0316,0.0376,0.0441,0.048,0.0556,0.0566,0.0559,0.066,0.0749,0.077,0.0788,0.0762,0.0778,0.0578,0.0578,0.0578,0,0.021,0.0231,0.0213,0.023,0.0251,0.0222,0.0254,0.0268,0.0278,0.0324,0.0282,0.0416,0.0433,0.0579,0.0591,0.0581,0.0587,0.0618,0.0761,0.078,0.0798,0.0768,0.0785,0.0581,0.0581,0.058,0.058,0,0.024,0.0262,0.0269,0.0299,0.0318,0.0335,0.0356,0.0389,0.04,0.0425,0.0536,0.0556,0.0654,0.0657,0.0645,0.08,0.0739,0.0743,0.074,0.0825,0.0785,0.0802,0.0585,0.0584,0.0583,0.0582,0,0,0.025,0.0285,0.029,0.0335,0.036,0.0389,0.0462,0.0538,0.0626,0.0637,0.0773,0.0828,0.084,0.0887,0.089,0.096,0.1035,0.0908,0.0911,0.0882,0.1153,0.1049,0.1056,0.1063,0.1068,0.1073,0.1041,0,0.0284,0.034,0.0356,0.0444,0.0485,0.0518,0.0608,0.0678,0.0732,0.0851,0.0905,0.101,0.0931,0.0985,0.1047,0.1063,0.1097,0.1038,0.1078,0.1078,0.098,0.1082,0.1033,0.1,0.1058,0.1061,0.1063,0,0.0312,0.0358,0.0434,0.0556,0.0582,0.0641,0.0806,0.0878,0.1023,0.107,0.1179,0.1211,0.1331,0.1244,0.1326,0.1287,0.1232,0.1212,0.1211,0.1134,0.1013,0.0944,0.1029,0.0993,0.1089,0.1087,0.1085,0,0.034,0.0426,0.0501,0.0533,0.0652,0.0729,0.0809,0.0948,0.106,0.1221,0.132,0.1434,0.1512,0.1517,0.1441,0.1403,0.1497,0.144,0.1283,0.1268,0.1253,0.123,0.1328,0.1507,0.1507,0.1507,0.1507,0,0.038,0.0447,0.0525,0.0571,0.0721,0.0782,0.0963,0.1053,0.1227,0.139,0.1439,0.1583,0.1593,0.1631,0.1534,0.146,0.1567,0.1337,0.13,0.1252,0.1231,0.1217,0.1188,0.1506,0.1506,0.1506,0.1507,0,0.0403,0.0437,0.0545,0.0675,0.073,0.0841,0.1047,0.1194,0.1315,0.1536,0.16,0.1732,0.176,0.1707,0.1702,0.1573,0.1472,0.1441,0.1318,0.1269,0.1072,0.1045,0.11,0.1114,0.1283,0.1281,0.1279,0,0.0426,0.0469,0.0613,0.0705,0.077,0.0936,0.1076,0.1228,0.1384,0.1622,0.1748,0.1835,0.1905,0.1818,0.163,0.1451,0.1411,0.1267,0.1212,0.11,0.1044,0.1021,0.1031,0.1157,0.1155,0.1153,0.1151,0,0.0492,0.0524,0.0618,0.0788,0.0934,0.1103,0.1295,0.1418,0.1614,0.1775,0.1962,0.2027,0.1931,0.176,0.15,0.1368,0.1244,0.1213,0.1198,0.1059,0.0954,0.0934,0.1048,0.1132,0.1134,0.1135,0.1137,0.1137,0.0555,0.063,0.0747,0.0917,0.1072,0.1248,0.1364,0.1558,0.1764,0.1979,0.2058,0.2122,0.1882,0.1528,0.1369,0.104,0.1085,0.0932,0.0926,0.0927,0.0925,0.0937,0.0923,0.0924,0.0924,0.0925,0.0925,0,0.0665,0.0745,0.0889,0.107,0.1218,0.1284,0.1511,0.1608,0.1795,0.1989,0.2114,0.1979,0.1696,0.1409,0.0966,0.0796,0.078,0.073,0.0738,0.0779,0.0878,0.0858,0.0713,0.0713,0.0713,0.0713,0.0713,0.0713,0.074,0.0877,0.0938,0.1171,0.1274,0.1421,0.1516,0.1653,0.1787,0.1914,0.1922,0.1946,0.1736,0.1084,0.0723,0.0657,0.0652,0.0556,0.0615,0.0698,0.0718,0.0737,0.0717,0.0544,0.0544,0.0534,0.0533,0.0533]}],[{"header":{"parameterUnit":"m.s-1","parameterCategory":2,"la1":30.2991,"la2":30.254,"lo1":-89.0895,"lo2":-89.0444,"dy":0.0017,"dx":0.0017,"nx":28,"ny":28,"refTime":"2025-07-11T21:00:00:Z","depth":"2","parameterNumber":2,"parameterNumberName":"U-component_of_CURRENTS"},"data":[0,0,0,0,0,0,0,0,0,0,0,0,0,0,0,0,0,0,0,0,0,0,0,0,0,0,0,0,0,0,0,0,0,0,0,0,0,0,0,0,0,0,0,0,0,0,0,0,0,0,0,0,0,0,0,0,0,0,0.2633,0.2635,0,0.262,0.2618,0.2616,0.2498,0.2497,0.2496,0.2495,0.2575,0.2578,0.2581,0,0,0,0,0,0,0,0,0,0,0,0,0,0.249,0.2491,0.2633,0.2635,0.2637,0.2621,0.2618,0.2616,0.2498,0.2497,0.2496,0.2495,0.2574,0.2578,0.2581,0,0,0,0,0,0,0,0,0,0,0,0,0,0.25,0.2492,0.2633,0.2593,0.2591,0.2621,0.2618,0.2615,0.2498,0.2497,0.2496,0.2495,0.2573,0.2577,0.2582,0.2635,0,0,0.2595,0.2597,0,0,0,0,0,0,0,0,0.25,0.2503,0.2597,0.2596,0.2594,0.2579,0.2598,0.2634,0.2499,0.2509,0.2495,0.2494,0.2601,0.2603,0.257,0.2638,0.2642,0.2596,0.2598,0.26,0.2601,0,0,0,0,0,0,0,0.2499,0.2503,0.2605,0.26,0.2598,0.2555,0.2553,0.2602,0.2547,0.2508,0.2505,0.2541,0.2598,0.2565,0.2572,0.2643,0.2595,0.2599,0.2602,0.2604,0.2866,0.287,0,0,0,0,0,0,0.2552,0.2503,0.2606,0.2607,0.2569,0.2561,0.2557,0.2567,0.2544,0.2545,0.2542,0.2536,0.2559,0.2566,0.2574,0.2766,0.26,0.2604,0.2607,0.2862,0.2867,0.2872,0,0,0,0,0,0,0.2549,0.256,0.2607,0.2574,0.2579,0.2567,0.2577,0.2568,0.2557,0.2573,0.257,0.2547,0.2558,0.2568,0.266,0.2764,0.2606,0.261,0.2857,0.2863,0.2869,0.3069,0,0,0,0,0,0,0.2544,0.2558,0.2576,0.2577,0.2584,0.2597,0.2581,0.2569,0.2591,0.2582,0.2578,0.2581,0.2558,0.2654,0.2665,0.2767,0.2614,0.2851,0.286,0.2867,0.3057,0.3082,0.3103,0,0,0,0,0,0.2538,0.2556,0.2576,0.259,0.2611,0.2598,0.2592,0.2566,0.2594,0.2556,0.2616,0.2582,0.2713,0.2662,0.2673,0.2779,0.2847,0.2857,0.2867,0.3047,0.3077,0.3102,0,0,0,0,0,0,0.2506,0.2549,0.2569,0.2602,0.2601,0.2586,0.2595,0.2595,0.2606,0.2623,0.264,0.2648,0.278,0.2748,0.2692,0.2877,0.2775,0.2787,0.2908,0.2936,0.2959,0.2898,0.2617,0,0,0,0,0,0.2521,0.2528,0.2568,0.2587,0.2615,0.262,0.2626,0.2598,0.2626,0.2624,0.2681,0.274,0.2825,0.2852,0.2904,0.2999,0.2965,0.3073,0.3096,0.3115,0.3074,0.3251,0.3286,0.2904,0.2903,0.2903,0,0,0.2518,0.2546,0.2553,0.258,0.2598,0.2642,0.2611,0.2614,0.2656,0.2646,0.2767,0.2838,0.2875,0.2992,0.3045,0.2977,0.3184,0.3127,0.3144,0.3091,0.3265,0.3302,0.3335,0.291,0.2909,0.2908,0,0,0.2544,0.2553,0.2597,0.2607,0.2648,0.2643,0.2665,0.2702,0.2716,0.2817,0.2874,0.2994,0.3098,0.3156,0.3195,0.3371,0.3322,0.3412,0.346,0.3637,0.3669,0.3698,0.3602,0.3621,0.34,0.34,0.3401,0,0.255,0.2593,0.2598,0.2661,0.2677,0.2672,0.2714,0.2744,0.2809,0.2862,0.2869,0.3127,0.3168,0.334,0.3396,0.3425,0.3433,0.336,0.3669,0.3697,0.3723,0.3619,0.3637,0.3411,0.341,0.3409,0.3408,0,0.2647,0.2657,0.2685,0.276,0.2774,0.2772,0.284,0.2891,0.295,0.2997,0.3188,0.3282,0.3416,0.3487,0.3488,0.3715,0.3623,0.3704,0.3599,0.3774,0.365,0.3666,0.3427,0.3423,0.342,0.3417,0,0,0.2651,0.2734,0.2727,0.2754,0.2796,0.2808,0.2912,0.2976,0.3067,0.3185,0.3328,0.3513,0.3582,0.3629,0.3708,0.3835,0.4005,0.3843,0.3847,0.3736,0.4227,0.3883,0.3863,0.4199,0.4205,0.421,0.4028,0,0.2696,0.2789,0.2815,0.2861,0.2899,0.2917,0.3004,0.3072,0.3157,0.3308,0.3437,0.3605,0.3637,0.3736,0.389,0.4025,0.4073,0.4032,0.4076,0.4069,0.3745,0.3883,0.3678,0.3481,0.4042,0.4044,0.4046,0,0.2759,0.279,0.2859,0.2878,0.2907,0.2957,0.3049,0.3126,0.3307,0.3389,0.3577,0.3688,0.3898,0.3918,0.4161,0.4157,0.4172,0.4223,0.4221,0.3834,0.3761,0.3419,0.3486,0.407,0.4068,0.4067,0.4065,0,0.2725,0.2785,0.2818,0.2835,0.2914,0.2961,0.3013,0.3161,0.325,0.3466,0.3564,0.3815,0.3949,0.4124,0.4197,0.4236,0.4388,0.4461,0.4102,0.4067,0.3848,0.3784,0.4577,0.4577,0.4578,0.4578,0.4579,0,0.2712,0.2732,0.2812,0.2833,0.2886,0.2952,0.3056,0.3152,0.3325,0.3444,0.3626,0.3757,0.4043,0.4153,0.4218,0.4155,0.4407,0.4069,0.4048,0.3891,0.3836,0.4339,0.4314,0.4571,0.4572,0.4574,0.4575,0,0.2678,0.2726,0.2766,0.2842,0.2878,0.2929,0.3072,0.3167,0.3308,0.3479,0.3555,0.3768,0.3879,0.3997,0.4194,0.4107,0.4125,0.401,0.364,0.3577,0.3641,0.3629,0.3597,0.3584,0.3574,0.3565,0.3557,0,0.2688,0.2699,0.2772,0.282,0.2865,0.2956,0.3031,0.3166,0.326,0.3463,0.3535,0.3661,0.3673,0.3692,0.368,0.3592,0.3805,0.3229,0.327,0.3582,0.3566,0.3571,0.3573,0.3013,0.3002,0.2993,0.2986,0,0.2664,0.2686,0.2716,0.2828,0.2905,0.2971,0.3077,0.3125,0.3271,0.3332,0.3378,0.3376,0.3362,0.3181,0.3018,0.2981,0.3245,0.3018,0.3606,0.3263,0.3013,0.3002,0.3029,0.2903,0.2911,0.2918,0.2922,0.2925,0.2647,0.2664,0.2725,0.2851,0.2913,0.2964,0.2944,0.3011,0.3032,0.3019,0.3122,0.2967,0.2942,0.2574,0.2457,0.2381,0.2608,0.2503,0.2543,0.2591,0.2527,0.2271,0.1994,0.1997,0.1999,0.2001,0.2003,0,0.2629,0.2705,0.2775,0.2848,0.2849,0.2949,0.2958,0.2841,0.2733,0.2727,0.2638,0.23,0.2085,0.2091,0.184,0.1709,0.185,0.1626,0.1863,0.1942,0.2013,0.1934,0.1235,0.1233,0.123,0.1228,0,0,0.2644,0.2686,0.2745,0.2771,0.2819,0.2745,0.2696,0.249,0.2385,0.2127,0.1988,0.2029,0.2024,0.1639,0.1542,0.136,0.1667,0.1296,0.192,0.2286,0.2355,0.2516,0.2476,0,0,0,0,0]},{"header":{"parameterUnit":"m.s-1","parameterCategory":2,"la1":30.2991,"la2":30.254,"lo1":-89.0895,"lo2":-89.0444,"dy":0.0017,"dx":0.0017,"nx":28,"ny":28,"refTime":"2025-07-11T21:00:00:Z","depth":"2","parameterNumber":3,"parameterNumberName":"V-component_of_CURRENTS"},"data":[0,0,0,0,0,0,0,0,0,0,0,0,0,0,0,0,0,0,0,0,0,0,0,0,0,0,0,0,0,0,0,0,0,0,0,0,0,0,0,0,0,0,0,0,0,0,0,0,0,0,0,0,0,0,0,0,0,0,-0.0037,-0.0037,0,-0.0132,-0.0134,-0.0135,-0.0149,-0.0148,-0.0147,-0.0146,-0.0055,-0.0053,-0.0052,0,0,0,0,0,0,0,0,0,0,0,0,0,0.0009,0.0009,-0.0036,-0.0038,-0.0039,-0.0132,-0.0134,-0.0135,-0.0149,-0.0148,-0.0147,-0.0146,-0.0055,-0.0053,-0.0052,0,0,0,0,0,0,0,0,0,0,0,0,0,-0.0042,0.0009,-0.0036,-0.0056,-0.0059,-0.0132,-0.0134,-0.0135,-0.015,-0.0148,-0.0147,-0.0145,-0.0056,-0.0054,-0.0051,-0.0066,0,0,-0.0044,-0.0043,0,0,0,0,0,0,0,0,-0.0039,-0.0044,-0.0052,-0.0055,-0.0058,-0.0126,-0.0084,-0.0103,-0.015,-0.0116,-0.0146,-0.0145,-0.0062,-0.0059,-0.0084,-0.0062,-0.0058,-0.0044,-0.0043,-0.0042,-0.0041,0,0,0,0,0,0,0,-0.0035,-0.004,-0.0076,-0.0053,-0.0057,-0.0103,-0.0108,-0.0089,-0.0093,-0.0119,-0.012,-0.013,-0.0062,-0.0087,-0.0082,-0.0057,-0.0044,-0.0042,-0.0041,-0.004,0.0024,0.0024,0,0,0,0,0,0,-0.0016,-0.0036,-0.0072,-0.0078,-0.0044,-0.0105,-0.011,-0.0107,-0.0098,-0.0096,-0.0131,-0.013,-0.0091,-0.0084,-0.0078,-0.0029,-0.0042,-0.004,-0.0038,0.0024,0.0024,0.0025,0,0,0,0,0,0,-0.0015,-0.0018,-0.0069,-0.006,-0.0069,-0.0106,-0.0103,-0.0109,-0.0132,-0.0108,-0.0103,-0.0146,-0.009,-0.0081,-0.005,-0.0027,-0.0039,-0.0036,0.0023,0.0024,0.0024,0.0029,0,0,0,0,0,0,-0.0013,-0.0017,-0.0013,-0.0058,-0.0069,-0.0111,-0.0105,-0.0112,-0.014,-0.0139,-0.0119,-0.011,-0.0088,-0.0054,-0.0048,-0.0024,-0.0035,0.0023,0.0024,0.0024,0.0029,0.003,0.0031,0,0,0,0,0,-0.0011,-0.0008,-0.0012,-0.0017,-0.006,-0.0112,-0.0123,-0.0145,-0.0142,-0.0159,-0.0132,-0.0111,-0.0045,-0.0052,-0.0045,-0.002,0.0023,0.0023,0.0024,0.0028,0.003,0.0031,0,0,0,0,0,0,0.0008,-0.0011,-0.0016,-0.002,-0.0062,-0.0113,-0.0127,-0.015,-0.0152,-0.0136,-0.0112,-0.0102,-0.0063,-0.005,-0.0058,-0.0001,-0.0006,-0.0004,-0.0005,-0.0003,-0.0002,0.0032,-0.0033,0,0,0,0,0,0.0015,0.0019,-0.0022,-0.0028,-0.0042,-0.0088,-0.0111,-0.0131,-0.014,-0.0143,-0.0132,-0.0101,-0.006,-0.0038,-0.0014,0.0011,0.0054,0.0033,0.0034,0.0035,0.0067,0.0218,0.0237,0.0027,0.0027,0.0027,0,0,0.0018,0.001,0.001,-0.0024,-0.0051,-0.0069,-0.0098,-0.0131,-0.0136,-0.0126,-0.0118,-0.0099,-0.0054,-0.002,-0.0001,-0.0001,0.0088,0.0036,0.0037,0.0069,0.0221,0.0242,0.0261,0.0027,0.0027,0.0027,0,0,0.0017,0.0023,0.0017,-0.0008,-0.0047,-0.0063,-0.0071,-0.0124,-0.0132,-0.0137,-0.011,-0.0078,-0.0053,-0.0006,0.0024,0.0045,0.0089,0.0046,0.0086,0.0231,0.0251,0.0269,0.0229,0.0245,0.005,0.005,0.005,0,0.0019,0.0021,0.0001,-0.0014,-0.0014,-0.0053,-0.0057,-0.0081,-0.0118,-0.0095,-0.0125,-0.0045,-0.0036,0.0065,0.006,0.0052,0.0094,0.0077,0.0237,0.0257,0.0277,0.0233,0.025,0.005,0.005,0.005,0.005,0,0.0013,0.0013,0.0009,0.0003,-0.0007,-0.0018,-0.0037,-0.0042,-0.005,-0.006,0.0,0.0008,0.0077,0.0063,0.0064,0.0199,0.0161,0.0222,0.0242,0.0299,0.0245,0.0263,0.005,0.005,0.005,0.005,0,0,0.0032,0.0011,0.0013,0.003,0.0013,0.0015,0.0029,0.0049,0.0108,0.0058,0.0149,0.0152,0.0166,0.0202,0.0211,0.0299,0.039,0.0315,0.0323,0.0284,0.0604,0.0483,0.0489,0.0518,0.0524,0.0529,0.0468,0,0.0038,0.0035,0.003,0.0058,0.0067,0.0075,0.0113,0.0132,0.0152,0.0223,0.0236,0.0312,0.0221,0.0277,0.0349,0.0424,0.046,0.0394,0.0548,0.0548,0.0449,0.0517,0.0512,0.0456,0.0485,0.0488,0.0491,0,0.0037,0.0052,0.0066,0.0132,0.0145,0.0164,0.0279,0.0299,0.0382,0.0413,0.0475,0.0492,0.0569,0.052,0.0628,0.0605,0.0599,0.0616,0.0617,0.0539,0.0469,0.0429,0.0488,0.0521,0.0518,0.0516,0.0514,0,0.0071,0.0091,0.0124,0.0133,0.0184,0.023,0.0278,0.0357,0.044,0.0549,0.0645,0.0707,0.0793,0.0829,0.0778,0.0757,0.09,0.0883,0.0729,0.0712,0.0754,0.0733,0.0986,0.0986,0.0986,0.0987,0.0987,0,0.0085,0.0115,0.0147,0.0161,0.0272,0.0285,0.0423,0.0477,0.0617,0.0767,0.0755,0.0895,0.0909,0.0956,0.0876,0.0833,0.0971,0.0747,0.0742,0.0732,0.0712,0.0837,0.0821,0.0984,0.0985,0.0985,0.0986,0,0.0087,0.0095,0.015,0.0227,0.0271,0.0347,0.0514,0.0642,0.0732,0.0942,0.0995,0.1101,0.114,0.1055,0.1112,0.097,0.0932,0.0875,0.0748,0.073,0.0587,0.0571,0.0694,0.0691,0.0688,0.0685,0.0683,0,0.0082,0.0096,0.0198,0.0277,0.0311,0.0438,0.0567,0.0692,0.0841,0.1067,0.1198,0.1277,0.1315,0.1231,0.1066,0.0864,0.089,0.0706,0.0671,0.0602,0.0583,0.0572,0.056,0.0659,0.0657,0.0655,0.0654,0,0.0087,0.0112,0.0161,0.0333,0.0467,0.0637,0.0809,0.0938,0.1124,0.1275,0.1467,0.1494,0.1393,0.1213,0.0924,0.0799,0.0728,0.0656,0.0767,0.0721,0.0564,0.0545,0.0538,0.0638,0.064,0.0641,0.0642,0.0642,0.0103,0.0147,0.024,0.0432,0.0595,0.0824,0.0939,0.1138,0.1349,0.1543,0.1592,0.159,0.141,0.1002,0.0797,0.0577,0.0598,0.0498,0.0508,0.0519,0.0514,0.0362,0.0384,0.0385,0.0385,0.0385,0.0385,0,0.0171,0.0234,0.0369,0.0581,0.0785,0.0866,0.1119,0.1226,0.1437,0.1569,0.1648,0.1413,0.1192,0.0974,0.0615,0.039,0.0417,0.0329,0.0423,0.0439,0.0453,0.0449,0.0299,0.0298,0.0298,0.0297,0,0,0.0207,0.0324,0.0419,0.0746,0.0889,0.11,0.1222,0.1362,0.1457,0.1531,0.1508,0.1479,0.1213,0.0936,0.0681,0.0483,0.0507,0.0442,0.053,0.0686,0.0702,0.0565,0.0577,0,0,0,0,0]}],[{"header":{"parameterUnit":"m.s-1","parameterCategory":2,"la1":30.2991,"la2":30.254,"lo1":-89.0895,"lo2":-89.0444,"dy":0.0017,"dx":0.0017,"nx":28,"ny":28,"refTime":"2025-07-11T21:00:00:Z","depth":"4","parameterNumber":2,"parameterNumberName":"U-component_of_CURRENTS"},"data":[0,0,0,0,0,0,0,0,0,0,0,0,0,0,0,0,0,0,0,0,0,0,0,0,0,0,0,0,0,0,0,0,0,0,0,0,0,0,0,0,0,0,0,0,0,0,0,0,0,0,0,0,0,0,0,0,0,0,0.0847,0.0845,0,0.0713,0.0712,0.0711,0.0816,0.0819,0.0823,0.0826,0.0863,0.0861,0.0859,0,0,0,0,0,0,0,0,0,0,0,0,0,0.1042,0.104,0.0848,0.0845,0.0842,0.0713,0.0712,0.0711,0.0815,0.082,0.0824,0.0828,0.0864,0.0861,0.0859,0,0,0,0,0,0,0,0,0,0,0,0,0,0.0948,0.1039,0.0848,0.0871,0.0871,0.0713,0.0712,0.0711,0.0814,0.082,0.0825,0.083,0.0865,0.0862,0.0858,0.073,0,0,0.0848,0.0846,0,0,0,0,0,0,0,0,0.0953,0.0942,0.087,0.0869,0.0869,0.0777,0.0793,0.0722,0.0813,0.0847,0.0826,0.0833,0.084,0.0839,0.0814,0.0732,0.0734,0.0847,0.0845,0.0844,0.0843,0,0,0,0,0,0,0,0.096,0.0947,0.0805,0.0867,0.0866,0.0835,0.083,0.078,0.0826,0.0844,0.0849,0.0816,0.0843,0.0817,0.0816,0.0734,0.0847,0.0844,0.0842,0.0841,0.0808,0.0809,0,0,0,0,0,0,0.0957,0.0954,0.0809,0.08,0.0913,0.0827,0.0822,0.081,0.0823,0.0826,0.0811,0.0821,0.082,0.082,0.0818,0.0859,0.0844,0.084,0.0838,0.0807,0.0808,0.081,0,0,0,0,0,0,0.0962,0.0946,0.0814,0.0865,0.0845,0.0818,0.0803,0.0804,0.0818,0.0794,0.0804,0.0828,0.0824,0.0823,0.085,0.0855,0.0839,0.0836,0.0805,0.0807,0.0809,0.0819,0,0,0,0,0,0,0.0969,0.0949,0.0953,0.0865,0.0841,0.0738,0.0797,0.0797,0.0781,0.0794,0.0809,0.0817,0.0828,0.0856,0.0847,0.085,0.0833,0.0804,0.0806,0.0808,0.0817,0.0821,0.0824,0,0,0,0,0,0.0976,0.0941,0.0955,0.0937,0.0844,0.0735,0.0721,0.0726,0.0777,0.0765,0.0824,0.0819,0.0865,0.0853,0.0842,0.0845,0.0803,0.0806,0.0808,0.0815,0.082,0.0824,0,0,0,0,0,0,0.1028,0.0944,0.0959,0.0905,0.0838,0.075,0.0723,0.0727,0.0752,0.0783,0.0814,0.0822,0.0831,0.0843,0.0829,0.0849,0.0838,0.0838,0.0847,0.0851,0.0854,0.093,0.083,0,0,0,0,0,0.1034,0.1003,0.0912,0.0877,0.0838,0.0789,0.0752,0.0741,0.073,0.0748,0.0779,0.0815,0.0816,0.0847,0.0828,0.0833,0.0881,0.0838,0.0841,0.0844,0.0903,0.0984,0.1001,0.0819,0.0819,0.0819,0,0,0.1048,0.0993,0.0982,0.0886,0.084,0.0771,0.0785,0.0711,0.0709,0.0741,0.079,0.0794,0.0811,0.0826,0.0836,0.0856,0.0913,0.0848,0.085,0.0909,0.0989,0.1007,0.1023,0.082,0.082,0.082,0,0,0.1,0.1006,0.094,0.0883,0.0786,0.0758,0.0743,0.0676,0.0716,0.0721,0.0758,0.0804,0.0804,0.0845,0.0858,0.0869,0.0896,0.0852,0.0965,0.1041,0.1057,0.1072,0.1119,0.1139,0.0894,0.0894,0.0894,0,0.1021,0.0938,0.0903,0.0813,0.0786,0.0761,0.0696,0.0696,0.0673,0.0724,0.0753,0.0833,0.0821,0.089,0.0918,0.0876,0.0931,0.0938,0.1047,0.1064,0.1079,0.1124,0.1145,0.0895,0.0895,0.0895,0.0894,0,0.09,0.0856,0.0807,0.0727,0.0696,0.0627,0.0614,0.0642,0.0702,0.0722,0.0814,0.0851,0.0943,0.0913,0.0927,0.103,0.1031,0.1005,0.1037,0.1098,0.114,0.1163,0.0896,0.0896,0.0895,0.0895,0,0,0.0908,0.0755,0.0751,0.0727,0.0655,0.062,0.0644,0.0663,0.0745,0.0783,0.0918,0.094,0.1026,0.1055,0.1079,0.1162,0.1275,0.1166,0.117,0.1216,0.1454,0.1246,0.125,0.1283,0.1288,0.1292,0.1425,0,0.0838,0.068,0.0645,0.0588,0.0524,0.0564,0.0603,0.0643,0.0742,0.0869,0.0961,0.1053,0.1061,0.1136,0.123,0.122,0.1344,0.1242,0.1389,0.1394,0.1204,0.1272,0.1307,0.1442,0.1447,0.145,0.1453,0,0.0729,0.0658,0.0554,0.0552,0.0542,0.0547,0.0689,0.0723,0.0877,0.0962,0.1127,0.1192,0.1316,0.133,0.1468,0.1411,0.1491,0.1503,0.1507,0.1344,0.1229,0.1379,0.1494,0.1491,0.1488,0.1485,0.1482,0,0.0726,0.0621,0.0565,0.0545,0.0518,0.0581,0.0644,0.0775,0.0863,0.107,0.1161,0.1318,0.1444,0.1524,0.1535,0.1544,0.1665,0.1658,0.1572,0.1557,0.17,0.1683,0.1861,0.186,0.186,0.186,0.1859,0,0.0631,0.0601,0.0579,0.0544,0.0599,0.0614,0.0743,0.0838,0.1005,0.1124,0.1255,0.1363,0.152,0.158,0.1589,0.1596,0.1714,0.1627,0.1594,0.1692,0.1673,0.1713,0.1694,0.1865,0.1864,0.1863,0.1862,0,0.0556,0.0516,0.0489,0.0525,0.0568,0.0635,0.0786,0.0874,0.1031,0.1215,0.1278,0.145,0.1503,0.1562,0.1677,0.1662,0.1646,0.1652,0.1724,0.1685,0.1502,0.1483,0.1617,0.1611,0.1606,0.1602,0.1598,0,0.0454,0.0403,0.0501,0.0531,0.0552,0.0661,0.073,0.0894,0.1004,0.1218,0.1295,0.1432,0.152,0.1501,0.1544,0.1542,0.1559,0.1584,0.1614,0.1532,0.1487,0.1475,0.1462,0.159,0.1589,0.1588,0.1586,0,0.0291,0.0362,0.0388,0.0482,0.0568,0.0641,0.0786,0.0846,0.1047,0.1185,0.1312,0.1355,0.1444,0.1453,0.1464,0.145,0.1542,0.1534,0.1548,0.1577,0.1501,0.1459,0.1452,0.1569,0.1572,0.1573,0.1574,0,0.0226,0.026,0.035,0.0444,0.0543,0.0623,0.0685,0.0817,0.0943,0.1202,0.1217,0.131,0.1454,0.1404,0.1343,0.1334,0.1385,0.1408,0.143,0.1449,0.1315,0.1189,0.117,0,0,0,0,0,0.0134,0.0198,0.0281,0.0405,0.0503,0.058,0.0719,0.0779,0.0973,0.106,0.1165,0.1209,0.1232,0.1227,0.1194,0.123,0.134,0.1183,0.1366,0.1474,0.1494,0.1339,0,0,0,0,0,0,0.0066,0.0158,0.0277,0.0381,0.0437,0.0549,0.0632,0.0734,0.0802,0.0985,0.0981,0.115,0.1138,0.1244,0.1173,0.1178,0.1276,0.1243,0.1241,0.1463,0.1481,0.1497,0.1345,0,0,0,0,0]},{"header":{"parameterUnit":"m.s-1","parameterCategory":2,"la1":30.2991,"la2":30.254,"lo1":-89.0895,"lo2":-89.0444,"dy":0.0017,"dx":0.0017,"nx":28,"ny":28,"refTime":"2025-07-11T21:00:00:Z","depth":"4","parameterNumber":3,"parameterNumberName":"V-component_of_CURRENTS"},"data":[0,0,0,0,0,0,0,0,0,0,0,0,0,0,0,0,0,0,0,0,0,0,0,0,0,0,0,0,0,0,0,0,0,0,0,0,0,0,0,0,0,0,0,0,0,0,0,0,0,0,0,0,0,0,0,0,0,0,0.0127,0.0128,0,0.0148,0.0148,0.0148,0.0128,0.0127,0.0127,0.0126,0.0094,0.0094,0.0094,0,0,0,0,0,0,0,0,0,0,0,0,0,0.0065,0.0067,0.0127,0.0128,0.0128,0.0148,0.0148,0.0148,0.0128,0.0127,0.0127,0.0126,0.0094,0.0094,0.0094,0,0,0,0,0,0,0,0,0,0,0,0,0,0.0087,0.0067,0.0127,0.0123,0.0123,0.0148,0.0148,0.0148,0.0128,0.0127,0.0127,0.0126,0.0095,0.0094,0.0094,0.0107,0,0,0.0092,0.0092,0,0,0,0,0,0,0,0,0.0086,0.0089,0.0123,0.0123,0.0123,0.0137,0.0114,0.0132,0.0128,0.0123,0.0126,0.0125,0.0106,0.0104,0.0107,0.0105,0.0104,0.0092,0.0092,0.0091,0.0091,0,0,0,0,0,0,0,0.0085,0.0088,0.0133,0.0124,0.0124,0.0118,0.012,0.0118,0.0116,0.0124,0.0123,0.013,0.0105,0.0108,0.0106,0.0104,0.0092,0.0092,0.0091,0.0091,0.0084,0.0084,0,0,0,0,0,0,0.0089,0.0087,0.0132,0.0134,0.0105,0.012,0.0122,0.0131,0.0117,0.0116,0.013,0.0129,0.0109,0.0107,0.0105,0.0125,0.0091,0.0091,0.0091,0.0084,0.0084,0.0084,0,0,0,0,0,0,0.0087,0.0093,0.0131,0.0112,0.0117,0.0122,0.0132,0.0132,0.0138,0.0123,0.012,0.0137,0.0108,0.0106,0.0115,0.0123,0.0091,0.009,0.0083,0.0084,0.0084,0.0162,0,0,0,0,0,0,0.0086,0.0092,0.0101,0.0113,0.0119,0.0164,0.0133,0.0133,0.0144,0.0142,0.0128,0.0124,0.0107,0.0116,0.0114,0.0122,0.009,0.0083,0.0084,0.0084,0.0159,0.0165,0.017,0,0,0,0,0,0.0083,0.01,0.0101,0.0106,0.013,0.0165,0.0168,0.0166,0.0146,0.0164,0.0149,0.0125,0.0115,0.0117,0.0115,0.0122,0.0083,0.0083,0.0084,0.0157,0.0164,0.0169,0,0,0,0,0,0,0.0074,0.0101,0.0101,0.0124,0.0151,0.0163,0.0179,0.0173,0.0176,0.0171,0.0142,0.0139,0.0148,0.0123,0.0125,0.0116,0.0089,0.0089,0.0145,0.0151,0.0156,0.0142,0.0089,0,0,0,0,0,0.0078,0.0098,0.0126,0.0144,0.0162,0.017,0.0182,0.0188,0.0192,0.0192,0.0177,0.0156,0.0147,0.0141,0.0133,0.0138,0.0098,0.0134,0.0139,0.0144,0.0128,0.0057,0.0054,0.0085,0.0085,0.0085,0,0,0.0076,0.0096,0.0104,0.0144,0.0161,0.0201,0.0175,0.0208,0.0231,0.0189,0.0205,0.0184,0.0154,0.0161,0.016,0.0141,0.0126,0.0144,0.0148,0.013,0.0057,0.0054,0.0051,0.0085,0.0085,0.0085,0,0,0.01,0.0107,0.0142,0.0173,0.0216,0.0226,0.0239,0.0261,0.0262,0.0287,0.0249,0.0221,0.0229,0.0187,0.0172,0.0194,0.0162,0.0203,0.0214,0.0147,0.0144,0.014,0.0142,0.0138,0.0199,0.0199,0.0199,0,0.0098,0.015,0.0158,0.0209,0.0234,0.024,0.0288,0.0298,0.0315,0.0298,0.0304,0.0256,0.023,0.0199,0.0208,0.0203,0.0191,0.0201,0.0154,0.0149,0.0144,0.0146,0.014,0.0203,0.0202,0.0202,0.0202,0,0.0157,0.0204,0.023,0.0292,0.0314,0.0363,0.0381,0.0392,0.0388,0.0372,0.035,0.0317,0.0277,0.0266,0.0252,0.0202,0.0218,0.0177,0.0141,0.0146,0.0148,0.0141,0.0208,0.0207,0.0206,0.0205,0,0,0.015,0.0253,0.0265,0.0306,0.0366,0.0389,0.0422,0.0435,0.0425,0.0424,0.0396,0.0365,0.0324,0.0301,0.0267,0.0202,0.0174,0.0186,0.0181,0.0195,0.0088,0.01,0.0093,0.0135,0.0133,0.0131,0.0125,0,0.0203,0.0309,0.0339,0.0422,0.0477,0.0483,0.0503,0.0499,0.0486,0.0458,0.0392,0.0365,0.0348,0.0332,0.027,0.017,0.0149,0.0183,0.0074,0.0071,0.0084,0.0081,0.0124,0.0119,0.0118,0.0116,0.0115,0,0.0263,0.0325,0.0421,0.0487,0.0506,0.0547,0.055,0.0579,0.0529,0.0505,0.0456,0.0405,0.0317,0.0308,0.017,0.0201,0.0169,0.0103,0.0101,0.0067,0.0066,0.0097,0.0101,0.0102,0.0103,0.0104,0.0105,0,0.0267,0.0378,0.0451,0.0482,0.0553,0.0577,0.0613,0.0588,0.0589,0.0539,0.0507,0.0408,0.0381,0.0265,0.015,0.0164,-0.0001,-0.0006,-0.0005,-0.0001,-0.0043,-0.004,-0.0069,-0.0069,-0.0069,-0.0069,-0.0069,0,0.0321,0.0383,0.0466,0.0513,0.0569,0.0609,0.0646,0.0649,0.0634,0.062,0.0548,0.0494,0.0369,0.0262,0.015,0.0041,0.0007,-0.0005,-0.0022,0.0001,0.0008,-0.0044,-0.0041,-0.0069,-0.0069,-0.0069,-0.0069,0,0.0338,0.04,0.0473,0.0552,0.0589,0.0626,0.0704,0.0707,0.0702,0.0687,0.0672,0.0567,0.0425,0.0293,0.0116,0.0075,-0.0075,-0.0081,-0.0011,-0.0023,-0.0008,-0.0001,-0.0077,-0.0077,-0.0077,-0.0077,-0.0077,0,0.0373,0.0418,0.0496,0.0522,0.0575,0.0651,0.0695,0.0741,0.0751,0.0706,0.0683,0.0579,0.0496,0.026,0.0111,-0.0068,-0.0072,-0.0086,-0.0074,-0.0011,-0.0019,-0.0011,-0.0004,-0.0077,-0.0077,-0.0077,-0.0077,0,0.0416,0.0426,0.0471,0.0532,0.0589,0.0657,0.0744,0.0747,0.0786,0.0771,0.0695,0.0581,0.0455,0.027,0.0166,0.0016,-0.008,-0.0086,-0.0086,-0.0075,-0.0012,-0.0018,-0.0011,-0.0077,-0.0077,-0.0077,-0.0077,0,0.0417,0.0439,0.0483,0.0532,0.0598,0.0662,0.07,0.0739,0.0769,0.0749,0.0711,0.0552,0.0497,0.0312,0.0149,0.005,0.0048,0.0056,0.0049,0.0048,0.007,0.0167,0.0137,0,0,0,0,0,0.0428,0.0455,0.0488,0.0537,0.0594,0.0653,0.0727,0.075,0.0789,0.0756,0.0755,0.062,0.0436,0.031,0.0217,0.0137,0.0012,0.0028,0.0014,-0.0079,-0.0078,-0.0076,0,0,0,0,0,0,0.0417,0.0462,0.0487,0.0555,0.0583,0.0671,0.072,0.0734,0.0725,0.073,0.061,0.0619,0.0401,0.0484,0.0215,0.018,0.0169,-0.0056,-0.0057,-0.0079,-0.0078,-0.0078,-0.0076,0,0,0,0,0]}]]